Location: Banff
(51.1667°N, 115.5667°W)
Time: 15:23:39
(UTC+00:00)

Altair - Pass Details

Date: 02 December 2020
Orbit: 1501 x 1682 km, 47.2° (Epoch: 15 January)

Event Time Altitude Azimuth Distance (km) Brightness Sun altitude
Rises 05:17:34 0° 252° (WSW) 4,709 10.4 -50.9°
Reaches altitude 10° 05:20:40 10° 250° (WSW) 3,707 9.7 -51.3°
Enters shadow 05:22:08 16° 249° (WSW) 3,243 9.3 -51.5°
